SCP
1 0 0 0 0 0 0 0 0 1 1 1 2 2 2 1 1 1 1 1 2 2 3 3 3 3 3 3 3 3 3 3 3 3 3 3 4 4 4 4 4 4 4 4 4 4 4 4 4
0 0 0 0 0 0 0 0 0 1 1 1 1 1 1 1 1 1 1 2 2 2 3 3 3 3 3 3 3 3 2 2 2 3 3 3 3 4 4 4 4 4 4 4 4 4 4 4 4
0 0 0 0 0 0 0 0 1 1 1 1 1 1 1 1 2 2 2 2 2 2 2 3 3 3 3 3 3 2 2 2 2 2 2 3 3 3 4 4 4 4 4 4 4 4 4 4 4
0 0 0 0 0 0 0 0 1 1 1 1 1 1 1 1 2 2 2 2 2 2 2 2 3 3 3 2 2 2 2 2 2 2 2 3 3 3 4 4 4 4 4 4 4 4 4 4 4
0 0 0 0 0 0 0 1 1 1 1 1 1 1 1 1 2 2 2 2 2 2 2 2 2 2 2 2 2 2 2 2 2 3 3 3 3 3 4 4 4 4 4 4 4 4 4 4 4
0 0 0 0 0 1 1 1 1 1 1 1 1 1 1 1 2 2 2 2 2 2 2 2 2 2 2 2 2 2 2 2 3 3 3 3 3 3 4 4 4 4 4 4 4 4 4 4 4
0 0 0 0 1 1 1 1 1 1 1 1 1 1 1 2 2 2 1 2 2 2 1 1 1 2 2 3 3 3 2 2 3 3 3 3 3 3 4 4 4 4 4 4 4 5 4 4 4
0 0 0 0 0 1 1 1 1 1 1 1 1 1 2 2 2 2 1 1 1 1 1 1 1 1 1 2 3 3 3 2 3 3 3 3 3 3 3 4 4 4 4 4 4 5 5 4 4
0 0 0 0 0 0 1 1 1 1 1 1 1 1 2 2 2 2 1 1 1 1 1 1 1 1 1 2 2 2 2 2 2 2 2 3 3 3 3 3 4 4 4 4 5 5 5 5 4
0 0 0 0 0 1 1 1 1 1 1 1 1 2 2 2 2 2 1 1 1 1 1 1 1 1 1 1 2 2 2 2 2 2 2 2 3 3 3 3 3 4 4 5 5 5 5 5 4
0 0 0 0 0 1 1 1 1 1 1 1 1 2 3 2 2 2 1 1 1 1 1 1 1 1 1 1 1 1 1 1 1 1 1 2 2 2 3 3 3 4 4 4 5 5 5 4 4
0 0 0 0 1 1 1 1 1 1 1 1 2 2 3 2 2 2 2 1 1 1 1 1 1 1 1 1 1 1 1 1 1 1 1 1 1 2 2 3 3 4 4 4 4 4 4 4 3
0 0 0 0 0 1 1 1 1 1 1 1 2 2 2 2 2 2 2 2 1 1 1 1 1 1 1 1 1 1 1 1 1 1 1 1 1 1 1 2 3 4 4 4 4 3 3 3 3
0 0 0 0 0 0 1 1 1 1 1 1 2 2 2 2 2 2 2 2 2 1 1 1 1 1 1 1 1 1 1 1 1 1 1 1 1 1 1 2 3 3 3 3 3 3 3 2 2
0 0 0 0 0 0 1 1 1 1 1 1 1 1 2 2 2 2 2 3 2 2 2 1 1 1 1 1 1 1 1 1 1 1 1 1 1 1 1 2 2 2 3 3 3 3 3 2 2
0 0 0 0 0 1 1 1 1 1 1 1 1 1 1 2 2 2 2 3 3 2 2 1 1 1 1 1 1 1 1 1 1 1 2 2 2 2 2 2 2 2 3 3 2 3 3 3 2
0 0 0 0 0 1 1 1 1 1 1 1 1 1 1 2 2 3 3 3 3 3 2 1 1 1 1 1 1 1 1 2 2 2 2 2 2 3 3 3 2 3 3 2 2 2 2 3 2
0 0 0 0 0 1 1 1 1 1 1 1 1 1 2 3 3 3 3 3 4 4 3 2 1 1 1 1 1 2 2 3 3 3 3 3 3 3 4 4 3 3 3 3 3 2 2 2 2
0 0 0 0 0 1 1 1 1 1 1 1 1 2 2 3 3 3 3 3 4 5 4 3 2 1 1 2 2 3 4 4 4 3 3 3 3 3 3 3 3 3 3 3 3 3 2 2 2
0 0 0 0 1 1 1 1 1 1 1 1 1 1 2 3 3 3 4 4 4 5 5 4 3 2 2 2 3 4 4 4 3 2 2 2 2 2 1 1 2 2 2 2 2 2 2 2 1
0 0 0 0 1 1 1 1 1 1 1 1 1 1 2 2 3 4 4 5 5 5 5 4 3 2 2 2 2 3 3 2 2 1 1 1 1 1 1 1 1 1 2 2 2 2 2 2 2
0 0 0 0 0 1 0 0 1 1 1 1 1 1 1 2 3 4 5 5 5 5 4 3 2 2 2 2 2 2 2 1 1 1 1 1 1 1 1 1 1 2 2 2 2 2 3 3 2
0 0 0 0 0 0 0 0 0 1 1 1 1 1 1 2 3 4 5 6 5 3 2 2 2 2 2 2 2 2 2 2 2 2 1 1 1 1 2 2 2 2 2 3 3 3 3 3 3
0 0 0 0 0 0 0 0 0 1 1 1 1 1 1 2 3 4 6 6 5 2 2 2 2 2 2 3 3 3 2 2 2 2 2 1 1 1 2 2 2 2 3 3 3 3 4 4 4
0 0 0 0 0 0 0 0 0 0 1 1 1 1 2 2 2 3 6 7 4 3 3 3 3 3 3 3 3 3 3 3 2 2 2 1 1 1 1 1 2 2 3 3 3 3 4 4 4
0 0 0 0 0 0 0 0 0 0 1 1 1 2 2 3 2 4 6 7 4 4 4 4 4 3 3 3 3 3 3 3 2 2 1 1 1 1 1 1 2 2 2 3 3 3 3 3 3
0 0 0 0 0 0 0 0 0 0 0 1 1 2 3 4 4 4 6 6 5 5 5 5 5 4 4 2 2 3 3 3 3 2 2 1 1 1 1 1 1 2 2 2 2 2 2 2 2
0 0 0 0 0 0 0 0 0 0 0 1 2 3 4 5 5 5 5 5 5 5 5 5 5 5 4 2 1 2 2 2 3 3 2 1 1 1 0 1 1 1 1 1 1 1 2 2 2
0 0 0 0 0 0 0 0 0 0 1 2 3 5 5 5 6 5 5 4 4 4 4 3 4 4 3 2 1 1 1 2 2 2 2 1 1 0 0 0 0 0 0 0 0 1 1 1 1
0 0 0 0 0 0 0 0 0 0 1 3 4 5 5 5 5 5 4 3 3 3 2 2 1 1 1 1 1 1 1 1 2 2 2 1 1 0 0 0 0 0 0 0 0 0 0 0 0
Wind_Speed
5 3 2 2 4 5 2 3 1 1 1 1 2 2 4 3 3 2 1 5 8 8 6 8 10 10 10 10 10 10 11 11 10 10 11 11 11 11 11 11 10 10 10 10 9 9 9 9 9
3 2 2 4 5 2 3 3 1 2 2 1 3 3 3 2 2 4 3 4 8 8 6 7 9 10 10 10 10 10 10 11 10 10 10 10 10 10 10 10 10 9 9 9 8 8 8 8 8
2 1 4 4 3 3 3 2 2 1 1 2 2 3 2 1 2 3 3 7 7 6 5 6 9 9 10 10 10 10 10 10 10 10 9 9 9 9 8 8 9 9 8 8 8 8 8 7 8
2 3 5 5 1 4 4 3 1 1 2 2 3 2 2 2 2 4 7 8 8 6 4 5 9 9 9 9 10 9 9 9 9 9 9 8 8 8 8 8 8 8 8 7 7 7 7 7 7
3 4 5 2 3 3 3 3 2 1 1 2 3 3 2 2 5 8 8 8 7 5 4 4 8 8 8 9 9 9 9 9 9 9 8 7 7 8 8 7 7 7 7 7 7 6 6 6 6
4 4 4 1 3 3 3 2 1 1 1 2 3 3 1 2 6 7 7 6 6 6 4 4 7 8 7 7 7 7 8 8 8 8 8 7 7 7 7 7 7 7 6 6 6 5 5 5 6
4 4 2 2 3 3 2 1 2 1 1 1 3 4 1 2 4 6 6 5 5 5 4 3 3 5 6 6 6 6 6 7 7 7 7 7 7 7 7 7 7 7 7 6 6 5 5 5 5
4 4 1 2 3 4 2 1 1 3 2 1 3 5 4 4 5 7 6 5 4 4 4 3 2 2 3 3 5 5 6 6 6 6 6 6 6 6 6 5 5 6 6 6 6 6 5 5 4
3 4 2 4 4 4 1 1 1 1 3 1 1 2 4 10 9 7 5 4 3 4 3 3 2 2 2 2 4 4 5 5 5 4 5 4 2 2 3 4 5 5 6 6 6 5 5 5 4
4 3 7 5 5 3 1 1 2 2 1 1 2 4 8 11 10 8 7 7 6 5 4 3 3 2 2 2 2 1 2 2 2 2 2 2 2 2 3 3 5 5 4 4 5 5 5 3 1
4 6 5 4 4 3 2 1 2 5 3 5 6 8 10 10 9 8 7 6 6 5 5 4 3 3 3 1 1 1 1 1 2 2 2 2 1 1 1 1 2 2 2 1 1 1 1 2 2
3 5 4 4 2 1 2 2 1 4 5 4 6 10 10 10 9 9 8 6 4 4 4 4 3 3 3 2 2 2 1 1 2 2 2 2 1 1 1 1 1 1 1 1 1 1 1 2 2
3 4 3 3 2 1 1 2 2 3 2 4 7 8 9 9 7 6 5 4 4 4 3 3 3 3 3 2 2 2 2 2 2 2 2 2 2 2 2 1 1 2 2 2 2 2 2 2 2
2 2 3 3 1 1 2 1 1 3 3 5 7 7 7 8 7 5 4 4 4 4 3 3 3 3 3 2 2 2 2 2 1 2 2 2 2 2 2 1 1 2 2 2 3 3 3 2 2
0 2 5 2 1 0 3 2 2 2 5 6 6 6 6 5 5 5 5 5 4 4 3 3 3 3 3 2 2 2 2 2 1 1 2 2 2 3 2 2 2 2 1 2 2 2 2 2 2
2 2 3 4 2 1 3 4 4 1 5 5 4 5 5 4 4 4 4 3 3 3 4 3 3 3 3 2 2 1 2 2 1 1 2 2 3 3 3 2 2 2 1 2 2 2 2 2 2
3 1 3 4 1 1 2 4 3 1 4 4 3 3 3 3 2 3 3 3 3 3 4 4 3 3 3 2 1 1 1 1 1 1 1 2 3 3 3 2 2 2 2 2 2 2 2 2 3
4 3 3 4 2 1 0 4 4 1 2 3 3 3 3 3 3 2 3 3 3 3 3 3 2 2 3 2 1 0 0 1 1 1 1 2 2 2 2 2 2 2 2 2 2 2 2 2 2
3 3 5 5 2 1 2 4 4 1 1 2 2 2 3 3 2 2 2 3 3 3 3 3 2 2 2 2 2 1 1 1 1 1 1 1 1 2 2 2 2 2 2 3 3 2 2 2 1
3 3 5 4 0 2 1 3 3 2 3 4 4 4 4 3 2 3 3 3 4 4 3 3 2 2 2 2 2 2 1 1 1 1 0 1 1 2 2 2 2 2 2 2 2 2 2 1 2
4 5 5 4 2 2 1 4 3 2 1 2 3 3 4 6 5 4 3 3 3 3 4 3 3 2 2 2 1 1 1 1 1 1 1 1 1 1 1 2 2 2 2 2 3 3 4 2 2
6 6 5 3 2 2 1 3 6 3 2 4 5 4 5 4 4 4 4 3 4 4 3 2 2 2 2 2 3 3 2 2 2 1 1 1 1 1 2 2 2 2 2 2 3 3 2 3 2
5 2 3 2 3 0 1 2 7 1 4 7 6 6 5 5 5 5 5 5 4 3 2 2 2 1 1 2 3 3 2 2 1 1 1 1 1 2 2 2 2 2 2 3 3 2 3 3 3
3 5 5 4 4 1 3 3 7 5 7 6 6 6 5 5 4 4 3 3 2 2 2 2 2 1 1 1 2 3 3 2 2 2 2 2 1 1 2 2 3 3 3 3 3 3 3 3 3
4 5 4 4 3 5 2 3 8 6 6 6 6 6 5 5 5 4 4 4 3 2 2 2 2 1 1 2 2 3 3 3 4 3 3 2 2 2 3 3 3 3 4 4 3 3 4 4 4
4 8 7 4 5 5 2 5 7 4 3 3 3 3 4 4 5 5 5 5 4 3 3 2 2 2 2 2 2 2 2 2 2 3 2 3 3 4 4 4 4 4 4 4 4 3 4 4 4
5 3 5 6 2 1 4 6 7 2 2 1 1 2 4 4 4 4 4 4 4 4 3 3 3 2 2 2 2 2 2 2 3 3 3 3 3 3 4 4 4 4 4 4 4 3 4 4 5
4 7 5 5 3 3 4 4 5 5 5 3 2 3 3 2 3 3 3 3 3 3 3 2 3 3 3 2 3 2 3 3 3 2 3 3 3 3 3 3 4 4 4 4 4 4 4 4 5
3 4 5 4 4 5 3 7 5 7 6 5 5 3 3 3 3 2 2 2 1 0 1 1 1 2 2 2 3 2 2 2 2 2 3 3 3 3 3 4 4 4 4 4 4 4 5 5 5
4 5 7 5 4 4 3 9 4 4 4 4 3 2 2 3 3 2 2 1 1 1 1 1 1 1 2 2 2 2 2 2 2 3 3 3 3 3 4 3 4 4 4 4 5 5 5 5 6
Wind_Direction
137 123 115 84 57 48 323 278 250 326 352 50 89 105 121 123 152 181 122 127 129 136 145 153 156 153 149 143 140 136 133 130 129 130 134 137 139 141 142 142 141 140 140 139 137 137 137 135 134
130 138 79 64 77 44 296 271 267 229 198 100 54 64 87 82 72 108 114 128 128 134 136 149 154 153 149 145 145 143 140 138 136 135 137 141 142 145 146 147 146 144 145 147 146 145 144 143 142
147 118 86 73 91 182 254 258 229 351 61 88 64 46 72 94 113 137 140 131 120 124 126 148 150 148 146 146 147 147 146 145 144 144 144 145 147 148 148 153 152 150 150 152 151 150 151 151 150
108 55 58 70 238 232 229 253 234 339 46 69 108 79 64 28 135 130 126 126 123 126 128 147 147 146 145 146 149 152 154 152 151 150 150 150 152 153 156 157 157 155 156 157 157 157 157 160 160
67 76 58 27 276 266 256 260 217 171 127 82 107 108 61 28 94 113 122 126 132 131 128 143 144 144 145 146 148 151 154 155 155 153 154 156 158 161 163 163 163 163 165 165 164 164 164 165 166
61 67 75 301 281 283 269 248 181 130 113 107 115 116 99 97 113 124 124 127 135 139 137 144 149 149 151 151 150 154 154 152 152 155 159 161 165 168 168 168 168 170 175 175 171 168 169 172 171
103 99 148 225 276 294 266 222 131 146 138 177 140 127 137 131 129 124 120 118 124 131 130 136 146 145 147 147 149 157 158 155 154 158 163 170 172 173 174 174 175 178 183 184 180 178 177 176 179
128 104 119 243 244 264 254 91 114 141 173 147 136 151 186 173 134 117 109 106 117 125 133 136 131 127 139 152 154 150 154 156 158 164 170 172 175 179 183 185 190 193 195 193 188 184 183 183 187
97 80 224 224 213 246 232 80 2 97 112 111 135 165 157 136 131 122 117 120 141 151 153 150 144 134 133 149 158 152 157 157 154 162 171 172 173 184 193 199 198 203 206 207 205 199 194 191 199
107 159 229 219 206 216 249 184 174 108 100 132 84 88 124 136 145 150 159 166 172 181 184 172 162 146 136 155 129 124 142 140 139 141 149 150 162 196 202 216 212 212 216 217 218 214 208 196 181
164 206 239 246 222 206 225 221 167 146 213 211 180 156 147 150 158 166 176 179 184 183 182 176 171 160 154 145 138 133 122 125 137 142 146 150 159 192 201 194 218 216 214 216 222 223 197 172 179
200 249 243 264 234 189 199 179 159 190 224 207 163 153 154 162 173 177 179 185 178 176 184 175 176 173 170 154 158 157 154 155 166 178 167 160 163 175 192 188 189 179 175 181 183 195 208 195 200
226 273 286 273 311 237 152 174 183 240 224 127 133 144 162 169 178 182 176 168 164 178 179 175 178 186 175 159 169 161 172 177 182 184 183 169 173 184 197 201 197 195 183 180 185 191 213 222 227
239 280 304 313 329 272 142 293 110 260 129 130 141 157 169 172 173 166 162 168 176 181 185 179 179 180 167 169 176 173 177 176 172 180 189 182 181 178 181 194 200 210 198 189 192 197 204 214 219
310 347 334 339 26 316 104 350 261 246 131 139 155 163 163 168 166 169 177 177 178 175 173 177 175 164 168 180 188 177 183 173 182 196 191 188 187 180 177 186 203 217 204 193 191 201 195 204 211
25 32 325 305 31 2 107 262 272 183 146 154 159 159 154 165 164 166 166 166 162 155 161 172 177 174 187 198 190 191 186 174 191 197 200 202 196 187 179 191 206 204 187 185 191 198 202 213 214
25 331 272 295 317 75 118 255 279 251 163 167 169 169 160 158 164 171 168 167 164 164 169 172 180 188 194 198 198 205 178 180 191 192 205 211 204 192 183 193 205 193 186 189 207 191 191 210 223
242 246 264 269 276 64 197 263 288 255 183 185 178 176 175 180 203 192 175 169 158 159 163 171 181 195 180 171 157 123 143 202 207 215 221 213 203 187 180 186 196 185 185 199 201 200 196 211 216
205 226 260 270 263 127 249 265 284 257 179 209 198 179 184 204 207 189 180 168 157 160 158 172 175 184 161 163 171 178 215 231 251 238 224 204 191 185 180 188 188 192 198 209 200 193 201 220 185
209 240 263 287 252 149 246 287 276 226 216 210 206 201 198 193 195 193 190 173 173 177 176 180 196 190 183 185 186 182 183 213 231 234 204 204 188 180 180 166 194 205 206 210 206 192 189 212 179
231 209 226 231 6 52 81 314 287 273 227 220 223 212 205 195 195 199 191 188 181 191 199 200 206 196 186 166 126 95 69 40 18 305 257 238 212 203 185 170 183 194 193 206 210 202 193 203 207
248 225 202 190 139 271 173 274 281 260 250 237 237 222 217 213 202 197 191 191 203 210 203 201 188 177 178 157 150 155 163 199 230 234 244 263 229 214 204 199 198 192 191 205 215 202 198 184 205
221 165 146 146 150 348 332 216 280 251 243 241 236 230 221 212 203 199 196 195 198 197 189 190 175 180 168 159 164 166 179 209 234 232 233 252 256 234 224 214 211 205 206 212 219 206 203 199 201
147 72 57 56 78 278 246 199 273 233 228 236 231 228 215 206 202 199 194 178 175 164 170 171 165 205 186 175 180 183 195 203 217 240 237 251 268 269 252 228 215 216 215 216 217 211 210 212 209
108 94 30 356 1 255 246 207 252 247 233 223 225 225 217 200 194 190 190 188 184 175 184 185 176 207 208 201 212 213 211 206 214 226 224 234 248 249 243 233 221 221 219 219 215 209 214 214 211
175 146 160 204 229 271 299 237 257 265 262 239 226 214 201 198 201 203 201 194 192 189 188 181 186 229 241 233 244 242 228 227 237 234 227 228 233 238 233 229 229 230 223 221 213 214 218 214 218
145 169 164 140 175 266 272 276 298 290 298 265 244 207 207 208 212 211 206 197 192 194 197 190 198 221 241 241 244 245 234 232 242 247 242 243 243 243 237 232 231 229 223 219 210 216 223 218 221
139 143 105 122 161 251 278 266 259 256 247 243 228 221 221 203 200 203 201 201 199 199 202 194 201 217 235 236 242 252 247 241 248 252 257 258 256 253 248 240 235 233 226 217 211 219 223 219 226
118 108 115 125 157 171 253 268 237 228 218 217 227 219 199 193 191 186 187 185 194 203 216 211 228 226 238 242 249 261 259 254 250 251 257 256 259 258 251 242 235 234 233 224 218 228 226 224 230
164 165 151 157 211 183 198 264 289 235 210 196 204 204 176 171 166 160 164 152 136 158 203 230 252 259 258 251 246 252 258 259 256 258 262 257 260 257 249 242 237 235 233 226 223 231 230 228 233